When you browse on this site, cookies collect data to enhance your experience and personalize the content and advertising you see.
Visit our Privacy Policy to learn more. By continuing to use the site, you agree to this use of cookies and data.
  • En España
  • Lista de países
  • Para 7 días
  • Temperatura del agua
  • Mapa Satelital
  • El tiempo en el mapa
  • Informadores
  • user-avatar
    Iniciar sesión

    Tiempo cada hora Leganés

    Hoy, 19 Julio, Viernes

    Tiempo Temperatura Precipitaciones Viento Presión Humedad
    00:00 +28°C° 0 mm 4 mps 706 mmHg 36%
    01:00 +28°C° 0 mm 4 mps 706 mmHg 39%
    02:00 +27°C° 0 mm 4 mps 706 mmHg 42%
    03:00 +26°C° 0 mm 4 mps 706 mmHg 45%
    04:00 +25°C° 0 mm 4 mps 706 mmHg 47%
    05:00 +25°C° 0 mm 4 mps 706 mmHg 49%
    06:00 +25°C° 0 mm 3 mps 706 mmHg 51%
    07:00 +27°C° 0 mm 3 mps 706 mmHg 46%
    08:00 +28°C° 0 mm 3 mps 706 mmHg 40%
    09:00 +30°C° 0 mm 2 mps 706 mmHg 35%
    10:00 +32°C° 0 mm 2 mps 706 mmHg 30%
    11:00 +35°C° 0 mm 2 mps 706 mmHg 26%
    12:00 +35°C° 0 mm 1 mps 706 mmHg 21%
    13:00 +37°C° 0 mm 2 mps 705 mmHg 19%
    14:00 +38°C° 0 mm 2 mps 705 mmHg 17%
    15:00 +39°C° 0 mm 3 mps 704 mmHg 15%
    16:00 +39°C° 0 mm 2 mps 704 mmHg 15%
    17:00 +38°C° 0 mm 2 mps 704 mmHg 16%
    18:00 +38°C° 0 mm 2 mps 704 mmHg 16%
    19:00 +37°C° 0 mm 3 mps 704 mmHg 18%
    20:00 +35°C° 0 mm 3 mps 704 mmHg 20%
    21:00 +34°C° 0 mm 4 mps 704 mmHg 22%
    22:00 +32°C° 0 mm 4 mps 704 mmHg 24%
    23:00 +30°C° 0 mm 5 mps 704 mmHg 26%

    Mañana, 20 Julio, Sábado

    Tiempo Temperatura Precipitaciones Viento Presión Humedad
    00:00 +29°C° 0 mm 5 mps 704 mmHg 28%
    01:00 +28°C° 0 mm 5 mps 704 mmHg 32%
    02:00 +27°C° 0 mm 5 mps 704 mmHg 36%
    03:00 +26°C° 0 mm 4 mps 704 mmHg 39%
    04:00 +26°C° 0 mm 4 mps 704 mmHg 41%
    05:00 +25°C° 0 mm 4 mps 705 mmHg 42%
    06:00 +25°C° 0 mm 4 mps 705 mmHg 43%
    07:00 +27°C° 0 mm 4 mps 705 mmHg 39%
    08:00 +28°C° 0 mm 3 mps 705 mmHg 34%
    09:00 +30°C° 0 mm 3 mps 705 mmHg 29%
    10:00 +32°C° 0 mm 2 mps 705 mmHg 25%
    11:00 +35°C° 0 mm 2 mps 706 mmHg 22%
    12:00 +36°C° 0 mm 1 mps 706 mmHg 18%
    13:00 +38°C° 0 mm 2 mps 706 mmHg 17%
    14:00 +39°C° 0 mm 3 mps 705 mmHg 15%
    15:00 +41°C° 0 mm 4 mps 705 mmHg 14%
    16:00 +41°C° 0 mm 4 mps 705 mmHg 14%
    17:00 +40°C° 0 mm 3 mps 705 mmHg 14%
    18:00 +40°C° 0 mm 3 mps 705 mmHg 14%
    19:00 +38°C° 0 mm 3 mps 705 mmHg 16%
    20:00 +36°C° 0 mm 3 mps 706 mmHg 18%
    21:00 +34°C° 0 mm 3 mps 706 mmHg 19%
    22:00 +33°C° 0 mm 4 mps 706 mmHg 26%
    23:00 +32°C° 0 mm 5 mps 707 mmHg 32%

    Pasado mañana, 21 Julio, Domingo

    Tiempo Temperatura Precipitaciones Viento Presión Humedad
    00:00 +29°C° 0 mm 5 mps 707 mmHg 39%
    01:00 +28°C° 0 mm 5 mps 707 mmHg 41%
    02:00 +28°C° 0 mm 4 mps 707 mmHg 42%
    03:00 +27°C° 0 mm 3 mps 707 mmHg 44%
    04:00 +27°C° 0 mm 4 mps 707 mmHg 44%
    05:00 +27°C° 0 mm 4 mps 707 mmHg 44%
    06:00 +27°C° 0 mm 4 mps 707 mmHg 44%
    07:00 +28°C° 0 mm 4 mps 708 mmHg 40%
    08:00 +30°C° 0 mm 4 mps 708 mmHg 36%
    09:00 +32°C° 0 mm 4 mps 708 mmHg 31%
    10:00 +34°C° 0 mm 3 mps 708 mmHg 28%
    11:00 +36°C° 0 mm 3 mps 708 mmHg 24%
    12:00 +38°C° 0 mm 2 mps 708 mmHg 20%
    13:00 +39°C° 0 mm 3 mps 708 mmHg 19%
    14:00 +40°C° 0 mm 3 mps 708 mmHg 17%
    15:00 +42°C° 0 mm 4 mps 708 mmHg 16%
    16:00 +40°C° 0.4 mm 5 mps 707 mmHg 20%
    17:00 +38°C° 0.4 mm 6 mps 707 mmHg 25%
    18:00 +34°C° 0.4 mm 8 mps 707 mmHg 30%
    19:00 +33°C° 0.3 mm 7 mps 707 mmHg 32%
    20:00 +32°C° 0.3 mm 7 mps 708 mmHg 35%
    21:00 +30°C° 0.3 mm 6 mps 709 mmHg 37%
    22:00 +29°C° 0.2 mm 6 mps 709 mmHg 39%
    23:00 +28°C° 0.2 mm 5 mps 709 mmHg 41%

    22 Julio, Lunes

    Tiempo Temperatura Precipitaciones Viento Presión Humedad
    00:00 +28°C° 0.2 mm 5 mps 709 mmHg 43%
    01:00 +27°C° 0 mm 5 mps 709 mmHg 43%
    02:00 +27°C° 0 mm 5 mps 709 mmHg 42%
    03:00 +26°C° 0 mm 4 mps 709 mmHg 42%
    04:00 +26°C° 0 mm 4 mps 709 mmHg 42%
    05:00 +26°C° 0 mm 4 mps 709 mmHg 42%
    06:00 +26°C° 0 mm 4 mps 709 mmHg 42%
    07:00 +27°C° 0 mm 4 mps 709 mmHg 39%
    08:00 +29°C° 0 mm 4 mps 709 mmHg 35%
    09:00 +32°C° 0 mm 4 mps 710 mmHg 31%
    10:00 +34°C° 0 mm 4 mps 710 mmHg 28%
    11:00 +36°C° 0 mm 4 mps 710 mmHg 25%
    12:00 +37°C° 0 mm 4 mps 709 mmHg 22%
    13:00 +39°C° 0 mm 5 mps 709 mmHg 20%
    14:00 +40°C° 0 mm 6 mps 709 mmHg 18%
    15:00 +41°C° 0 mm 7 mps 708 mmHg 16%
    16:00 +38°C° 0 mm 7 mps 708 mmHg 22%
    17:00 +34°C° 0 mm 8 mps 708 mmHg 28%
    18:00 +32°C° 0 mm 8 mps 708 mmHg 35%
    19:00 +30°C° 0.1 mm 6 mps 708 mmHg 35%
    20:00 +30°C° 0.1 mm 5 mps 709 mmHg 35%
    21:00 +29°C° 0.1 mm 3 mps 709 mmHg 36%
    22:00 +29°C° 0 mm 3 mps 709 mmHg 34%
    23:00 +29°C° 0 mm 3 mps 709 mmHg 32%

    23 Julio, Martes

    Tiempo Temperatura Precipitaciones Viento Presión Humedad
    00:00 +28°C° 0 mm 3 mps 709 mmHg 30%
    01:00 +28°C° 0 mm 3 mps 709 mmHg 31%
    02:00 +27°C° 0 mm 3 mps 708 mmHg 32%
    03:00 +26°C° 0 mm 3 mps 708 mmHg 33%
    04:00 +26°C° 0.1 mm 3 mps 708 mmHg 34%
    05:00 +26°C° 0.1 mm 3 mps 708 mmHg 35%
    06:00 +26°C° 0.1 mm 3 mps 708 mmHg 36%
    07:00 +28°C° 0 mm 3 mps 708 mmHg 32%
    08:00 +29°C° 0 mm 3 mps 709 mmHg 28%
    09:00 +31°C° 0 mm 3 mps 709 mmHg 25%
    10:00 +34°C° 0 mm 3 mps 709 mmHg 22%
    11:00 +36°C° 0 mm 3 mps 709 mmHg 19%
    12:00 +37°C° 0 mm 2 mps 708 mmHg 16%
    13:00 +38°C° 0 mm 3 mps 708 mmHg 15%
    14:00 +39°C° 0 mm 3 mps 708 mmHg 14%
    15:00 +40°C° 0 mm 3 mps 707 mmHg 13%
    16:00 +41°C° 0 mm 4 mps 707 mmHg 12%
    17:00 +41°C° 0 mm 4 mps 707 mmHg 12%
    18:00 +41°C° 0 mm 5 mps 707 mmHg 12%
    19:00 +39°C° 0 mm 5 mps 707 mmHg 14%
    20:00 +36°C° 0 mm 6 mps 707 mmHg 16%
    21:00 +35°C° 0 mm 7 mps 707 mmHg 18%
    22:00 +34°C° 0 mm 7 mps 707 mmHg 19%
    23:00 +32°C° 0 mm 6 mps 707 mmHg 21%

    24 Julio, Miércoles

    Tiempo Temperatura Precipitaciones Viento Presión Humedad
    00:00 +30°C° 0 mm 6 mps 707 mmHg 23%
    01:00 +30°C° 0 mm 5 mps 707 mmHg 24%
    02:00 +29°C° 0 mm 5 mps 707 mmHg 26%
    03:00 +28°C° 0 mm 4 mps 707 mmHg 28%
    04:00 +28°C° 0 mm 4 mps 707 mmHg 29%
    05:00 +28°C° 0 mm 4 mps 707 mmHg 30%
    06:00 +27°C° 0 mm 4 mps 707 mmHg 31%
    07:00 +29°C° 0 mm 4 mps 707 mmHg 29%
    08:00 +32°C° 0 mm 4 mps 707 mmHg 26%
    09:00 +33°C° 0 mm 4 mps 707 mmHg 23%
    10:00 +35°C° 0 mm 4 mps 707 mmHg 21%
    11:00 +37°C° 0 mm 4 mps 707 mmHg 18%
    12:00 +40°C° 0 mm 4 mps 707 mmHg 16%
    13:00 +41°C° 0 mm 4 mps 706 mmHg 14%
    14:00 +41°C° 0 mm 4 mps 706 mmHg 13%
    15:00 +42°C° 0 mm 4 mps 705 mmHg 11%
    16:00 +42°C° 0 mm 4 mps 705 mmHg 11%
    17:00 +41°C° 0 mm 5 mps 705 mmHg 11%
    18:00 +41°C° 0 mm 5 mps 705 mmHg 11%
    19:00 +39°C° 0 mm 5 mps 705 mmHg 13%
    20:00 +38°C° 0 mm 6 mps 705 mmHg 15%
    21:00 +35°C° 0 mm 6 mps 705 mmHg 17%
    22:00 +34°C° 0 mm 6 mps 705 mmHg 20%
    23:00 +32°C° 0 mm 6 mps 705 mmHg 24%
    Mostrar más